Flag for Thailand Weather past 2 weeks in Udon Thani, Thailand

Now
95 °F

Broken clouds.


Feels Like: 103 °F
Forecast: 79 / 93 °F
Wind: 5 mph from Southwest

Location: Udon Thani Airport

Current Time: Jul 6, 2015 at 4:48:33 PM

Latest Report: Jul 6, 2015 at 4:00 PM


Visibility: N/A

Pressure: 29.53 "Hg

Humidity: 47%

Dew point: 72 °F

Location of Udon ThaniLocation

Historic Weather in Udon Thani — Graph

°F

Udon Thani temperature yesterday

Maximum temperature yesterday: 99 °F (at 1:00 PM)
Minimum temperature yesterday: 82 °F (at 6:00 AM)
Average temperature yesterday: 92 °F

Past Weeks' High & Low Weather Summary

 TemperatureHumidityPressure
High100 °F (Jun 30, 4:00 PM)89% (Jun 27, 6:00 AM)29.89 "Hg (Jun 27, 6:00 AM)
Low79 °F (Jun 27, 6:00 AM)35% (Jul 1, 3:00 PM)29.53 "Hg (Jul 4, 4:00 PM)
Average91 °F54%29.68 "Hg
* Reported Jun 21 3:00 PM — Jul 6 3:00 PM, Udon Thani, Weather by CustomWeather, © 2015

Note: Actual official high and low records may vary slightly from our data, if they occured in-between our weather recording intervals... More about our weather records

Advertising

Udon Thani weather history for previous 24 hours

 ConditionsComfort  
Time TempWeatherWind HumidityBarometerVisibility
3:00 PM
Mon, Jul 6
99 °FScattered clouds.9 mph42%29.53 "HgN/A
2:00 PM95 °FScattered clouds.8 mph44%29.59 "HgN/A
1:00 PM95 °FPartly sunny.9 mph47%29.59 "HgN/A
12:00 PM93 °FPartly sunny.8 mph49%29.62 "HgN/A
11:00 AM91 °FScattered clouds.9 mph52%29.65 "HgN/A
10:00 AM91 °FPassing clouds.7 mph56%29.68 "HgN/A
9:00 AM88 °FScattered clouds.5 mph62%29.68 "HgN/A
8:00 AM86 °FPassing clouds.3 mph70%29.65 "HgN/A
7:00 AM84 °FScattered clouds.2 mph74%29.65 "HgN/A
6:00 AM82 °FBroken clouds.2 mph79%29.65 "HgN/A
10:00 PM
Sun, Jul 5
88 °FPassing clouds.5 mph62%29.62 "HgN/A
9:00 PM86 °FPassing clouds.1 mph66%29.62 "HgN/A
8:00 PM88 °FPassing clouds.5 mph59%29.59 "HgN/A
7:00 PM90 °FPassing clouds.7 mph55%29.56 "HgN/A
6:00 PM95 °FPartly sunny.7 mph47%29.53 "HgN/A
5:00 PM97 °FScattered clouds.10 mph42%29.53 "HgN/A
4:00 PM97 °FScattered showers. Partly sunny.8 mph44%29.53 "HgN/A
Weather by CustomWeather, © 2015

See weather overviewHow to use our weather pages